Location: Waco, TX
(31.5481°N, 97.1672°W)
Time: 15:45:20
(UTC-06:00)

ISS - Visible Passes

Search period start: 22 January 2018 00:00
Search period end: 01 February 2018 00:00
Orbit: 402 x 407 km, 51.6° (Epoch: 23 January)

Date Brightness Start Highest point End Pass type
(mag) Time Alt. Az. Time Alt. Az. Time Alt. Az.
22 Jan -1.9 19:51:45 10° SW 19:53:30 29° WSW 19:53:30 29° WSW visible
23 Jan -3.6 18:59:34 10° SSW 19:02:44 52° SE 19:03:53 32° ENE visible
24 Jan -1.8 19:44:16 10° W 19:46:52 23° NW 19:46:52 23° NW visible
25 Jan -3.0 18:51:25 10° WSW 18:54:34 47° NW 18:57:05 15° NNE visible
26 Jan -1.0 19:38:03 10° NW 19:39:03 11° NNW 19:39:52 10° NNW visible
27 Jan -1.5 18:44:05 10° W 18:46:30 19° NW 18:48:55 10° NNE visible
